#timestamp,LO_Frequency,Hit,StdDev 
1575860415.1,286047004.4,N
1575860416.0,286047004.4,N
1575860435.8,286047010.1,N
1575860455.7,286047005.3,N
1575860475.5,286047000.4,N
1575860495.3,286046997.8,N
1575860515.2,286046996.3,N
1575860535.0,286046998.9,N
1575860535.9,286046998.9,N
1575860555.8,286046988.2,N
1575860575.6,286046996.3,N
1575860595.4,286046994.1,N
1575860615.3,286046992.7,N
1575860635.1,286046990.5,N
1575860655.9,286047003.2,N
1575860675.7,286047002.3,N
1575860695.5,286046996.4,N
1575860715.4,286046993.1,N
1575860735.2,286046993.6,N
1575860755.0,286046994.2,N
1575860755.9,286046994.2,N
1575860775.8,286046991.0,N
1575860795.6,286046985.4,N
1575860815.5,286046989.6,N
1575860835.3,286046984.3,N
1575860885.2,286046995.7,E
1575860895.1,286046997.3,N
1575860896.0,286046997.3,P
1575860915.8,286047002.2,P
1575860935.7,286047009.0,Y
1575860955.5,286047007.8,P
1575860975.3,286047003.5,N
1575860995.2,286046999.3,N
1575861015.0,286046996.3,N
1575861015.9,286046996.3,N
1575861035.8,286046997.9,N
1575861055.6,286046995.4,N
1575861075.4,286046995.6,N
1575861095.3,286046996.9,N
1575861115.1,286046997.3,N
1575861135.9,286046996.2,N
1575861155.7,286046996.3,N
1575861175.5,286046994.2,N
1575861195.4,286046990.8,N
1575861215.2,286046989.6,N
1575861235.0,286046985.5,Y
1575861235.9,286046985.5,P
1575861255.8,286046989.1,N
1575861275.6,286046991.2,N
1575861295.5,286046990.8,N
1575861315.3,286046988.5,Y
1575861335.1,286047002.5,P
1575861355.9,286047008.9,N
1575861375.7,286047013.7,N
1575861395.6,286047018.0,N
1575861415.4,286047014.1,N
1575861435.2,286047016.1,N
1575861455.1,286047020.3,N
1575861456.0,286047020.3,N
1575861475.8,286047014.4,N
1575861495.6,286047011.0,N
1575861515.5,286047015.0,N
1575861535.3,286047015.8,N
1575861555.2,286047033.0,Y
1575861575.9,286047020.2,P
1575861595.7,286047019.8,P
1575861615.6,286047021.4,P
1575861635.4,286047016.8,Y
1575861655.3,286046993.4,P
1575861675.1,286047002.2,N
1575861676.0,286047002.2,N
1575861695.8,286047007.1,N
1575861715.7,286047008.7,N
1575861735.5,286047008.9,N
1575861755.3,286047007.2,N
1575861775.2,286047005.6,N
1575861795.0,286047003.0,N
1575861795.9,286047003.0,N
1575861815.8,286047004.1,N
1575861835.6,286047000.6,N
1575861855.4,286047000.4,N
1575861875.3,286047000.2,N
1575861895.1,286046998.8,N
1575861915.9,286046996.7,N
1575861935.7,286046996.8,N
1575861955.5,286046999.9,N
1575861975.4,286046999.7,N
1575861995.2,286047007.6,N
1575862015.1,286047004.6,N
1575862016.0,286047004.6,N
1575862035.8,286047006.7,N
1575862055.6,286047012.4,N
1575862075.5,286047007.6,N
1575862095.3,286047005.2,N
1575862115.1,286047006.1,N
1575862135.9,286047017.8,Y
1575862155.7,286047015.2,P
1575862175.6,286047008.7,N
1575862195.4,286047002.8,N
1575862215.2,286046995.4,N
1575862235.1,286046995.8,N
1575862266.0,286046992.7,E
1575862275.0,286046996.2,N
1575862275.9,286046996.2,P
1575862295.8,286046997.7,P
1575862315.6,286046997.5,Y
1575862335.5,286046999.7,P
1575862355.3,286047002.8,N
1575862375.1,286047002.0,N
1575862395.9,286047004.3,N
1575862415.7,286047010.0,Y
1575862435.5,286047009.6,P
1575862455.4,286047009.2,N
1575862475.2,286047001.8,N
1575862495.1,286047000.3,N
1575862496.0,286047000.3,N
1575862515.8,286046998.6,N
1575862535.6,286047000.0,N
1575862555.5,286047004.0,N
1575862575.3,286047009.3,N
1575862595.2,286047003.3,N
1575862615.9,286047007.0,N
1575862635.7,286047006.1,N
1575862655.6,286047007.5,N
1575862675.4,286047010.3,N
1575862695.2,286047020.2,Y
1575862715.1,286047020.2,P
1575862716.0,286047020.2,N
1575862735.8,286047009.4,N
1575862755.7,286047003.0,N
1575862775.5,286047002.4,N
1575862795.3,286047000.4,N
1575862815.2,286047003.6,N
1575862835.0,286047004.8,N
1575862835.9,286047004.8,N
1575862855.8,286047001.0,N
1575862875.6,286046997.5,N
1575862895.4,286046995.2,N
1575862915.3,286046996.0,N
1575862935.1,286046996.6,N
1575862955.8,286046996.9,N
1575862975.7,286047002.2,N
1575862995.5,286047007.0,N
1575863015.4,286047009.1,N
1575863035.2,286047010.8,N
1575863055.0,286047003.3,N
1575863055.9,286047003.3,N
1575863075.8,286047002.4,N
1575863095.6,286047006.5,N
1575863115.5,286047014.7,N
1575863135.3,286047017.9,N
1575863155.1,286047011.0,N
1575863175.9,286047010.7,N
1575863195.7,286047013.1,N
1575863215.5,286047004.7,N
1575863235.4,286047002.0,N
1575863255.2,286046999.6,N
1575863275.1,286046999.1,N
1575863276.0,286046999.1,N
1575863295.8,286047000.4,N
1575863315.6,286047001.4,N
1575863335.5,286047008.3,N
1575863355.3,286047009.8,N
1575863375.2,286047011.1,N
1575863395.0,286047014.9,N
1575863395.9,286047014.9,N
1575863415.7,286047012.0,N
1575863435.6,286047006.8,N
1575863455.4,286047007.2,N
1575863475.3,286047005.4,N
1575863495.1,286047005.6,N
1575863515.8,286047005.1,N
1575863535.7,286047004.5,N
1575863555.5,286047005.3,N
1575863575.4,286047002.4,N
1575863595.2,286046997.1,N
1575863615.0,286047006.4,N
1575863615.9,286047006.4,N
1575863635.8,286047016.1,Y
1575863655.6,286047012.9,P
1575863675.4,286047020.2,P
1575863695.3,286047012.6,N
1575863715.1,286047005.3,N
1575863735.9,286047001.5,N
1575863755.7,286047005.2,N
1575863775.5,286047009.8,N
1575863795.4,286047019.1,Y
1575863815.2,286047012.2,P
1575863835.1,286047012.9,P
1575863836.0,286047012.9,P
1575863855.8,286047014.9,Y
1575863875.6,286047008.5,P
1575863895.5,286047008.5,P
1575863915.3,286047008.5,P
1575863935.2,286047010.5,Y
1575863955.9,286046995.3,P
1575863975.7,286046990.3,N
1575863995.6,286046992.3,N
